Port Hope, MI

8:01 PM EDT on May 27, 2017 (GMT -0400)
Port Hope

Weather History for KP58 - February, 2013

Change the Weather History Date:

Wednesday, February 20, 2013

  Actual Average Record
Temperature  
Mean Temperature 18 °F -  
Max Temperature 21 °F 30 °F 50 °F (2016)
Min Temperature 15 °F 19 °F -15 °F (2015)
Degree Days  
Heating Degree Days 47    
Moisture  
Dew Point 7 °F    
Average Humidity 62    
Maximum Humidity 74    
Minimum Humidity 53    
Precipitation  
Precipitation 0.00 in - - ()
Sea Level Pressure  
Sea Level Pressure 30.07 in    
Wind  
Wind Speed 12 mph (WNW)    
Max Wind Speed 18 mph    
Max Gust Speed 33 mph    
Averages and records for this station are not official NWS values.
T = Trace of Precipitation, MM = Missing Value Source: NWS Daily Summary

Daily Weather History Graph

Daily Weather History Graph

Search for Another Location

Airport or City:

Trip Planner

Search our weather history database for the weather conditions in past years. The results will help you decide how hot, cold, wet, or windy it might be!

Date:

Astronomy

Feb. 20, 2013 Rise Set
Actual Time 7:22 AM EST 6:08 PM EST
Civil Twilight 6:53 AM EST 6:37 PM EST
Nautical Twilight 6:19 AM EST 7:10 PM EST
Astronomical Twilight 5:46 AM EST 7:44 PM EST
Moon 1:22 PM EST (2/20) 3:48 AM EST (2/20)
Length of Visible Light 11h 44m
Length of Day
10h 45m
Waxing Gibbous, 76% of the Moon is Illuminated
Feb 20
Waxing Gibbous
Feb 25
Full
Mar 4
Last Quarter
Mar 11
New
Mar 19
First Quarter

Hourly Weather History & Observations

Time (EST) Temp. Windchill Dew Point Humidity Pressure Visibility Wind Dir Wind Speed Gust Speed Precip Events Conditions
12:51 AM 18.0 °F 4.2 °F 9.0 °F 68% 29.82 in - West 13.8 mph 25.3 mph N/A   Unknown
1:51 AM 18.0 °F 4.8 °F 9.0 °F 68% 29.84 in - West 12.7 mph 27.6 mph N/A   Unknown
2:51 AM 18.0 °F 5.4 °F 9.0 °F 68% 29.86 in - West 11.5 mph 25.3 mph N/A   Unknown
3:51 AM 18.0 °F 6.9 °F 8.1 °F 65% 29.88 in - WNW 9.2 mph 24.2 mph N/A   Unknown
4:51 AM 17.1 °F 1.0 °F 3.9 °F 56% 29.90 in - WNW 18.4 mph 28.8 mph N/A   Unknown
5:51 AM 16.0 °F 0.6 °F 3.0 °F 57% 29.93 in - WNW 16.1 mph 33.4 mph N/A   Unknown
6:51 AM 15.1 °F 1.1 °F 1.9 °F 56% 29.97 in - WNW 12.7 mph 25.3 mph N/A   Unknown
7:51 AM 15.1 °F 1.1 °F 3.0 °F 59% 30.00 in - WNW 12.7 mph 23.0 mph N/A   Unknown
8:51 AM 15.1 °F 0.5 °F 3.9 °F 61% 30.03 in - WNW 13.8 mph 24.2 mph N/A   Unknown
9:51 AM 15.1 °F 4.2 °F 5.0 °F 64% 30.04 in - WNW 8.1 mph 20.7 mph N/A   Unknown
10:51 AM 15.1 °F 1.8 °F 6.1 °F 68% 30.07 in - WNW 11.5 mph 21.9 mph N/A   Unknown
11:51 AM 15.1 °F 2.5 °F 5.0 °F 64% 30.10 in - WNW 10.4 mph 21.9 mph N/A   Unknown
12:51 PM 17.1 °F 5.0 °F 6.1 °F 62% 30.11 in - NW 10.4 mph 18.4 mph N/A   Unknown
1:51 PM 19.0 °F 9.0 °F 7.0 °F 59% 30.10 in - NW 8.1 mph 16.1 mph N/A   Unknown
2:51 PM 19.9 °F 10.1 °F 7.0 °F 57% 30.13 in - WNW 8.1 mph - N/A   Unknown
3:51 PM 19.9 °F 7.9 °F 6.1 °F 55% 30.14 in - West 11.5 mph 16.1 mph N/A   Unknown
4:51 PM 21.0 °F 10.6 °F 6.1 °F 53% 30.15 in - West 9.2 mph - N/A   Unknown
5:51 PM 21.0 °F 13.4 °F 7.0 °F 55% 30.18 in - West 5.8 mph - N/A   Unknown
6:51 PM 21.0 °F 11.4 °F 7.0 °F 55% 30.19 in - WNW 8.1 mph - N/A   Unknown
7:51 PM 19.0 °F 6.1 °F 8.1 °F 62% 30.21 in - WNW 12.7 mph 20.7 mph N/A   Unknown
8:51 PM 18.0 °F 6.9 °F 8.1 °F 65% 30.22 in - NW 9.2 mph 23.0 mph N/A   Unknown
9:51 PM 18.0 °F 6.1 °F 9.0 °F 68% 30.23 in - NW 10.4 mph 20.7 mph N/A   Unknown
10:51 PM 17.1 °F 5.0 °F 8.1 °F 68% 30.24 in - NW 10.4 mph 19.6 mph N/A   Unknown
11:51 PM 17.1 °F 5.0 °F 10.0 °F 74% 30.23 in - NNW 10.4 mph 17.3 mph N/A   Unknown